Overview Statistics Trail Chart Weather Telemetry Raw packets
 

This is the latest recevied weather packets stored in our database for station/object DM8MH-13. If no packets are shown the sender has not sent any weather packets the latest 10 day(s).

<< 1 2 3 4 5 >>
Time Temp. Humidity Pressure Rain* Wind** Luminosity Snow
1788673272 11.67° C 85% 1026.6 hPa 0 mm - 86 W/m² -
1788672671 11.67° C 85% 1026.4 hPa 0 mm - 65 W/m² -
1788672072 11.11° C 85% 1026.3 hPa 0 mm - 46 W/m² -
1788671474 11.11° C 85% 1026.1 hPa 0 mm - 19 W/m² -
1788670871 11.11° C 85% 1026 hPa 0 mm - 14 W/m² -
1788670272 11.11° C 86% 1026 hPa 0 mm - 9 W/m² -
1788669671 11.11° C 86% 1026.2 hPa 0 mm - 0 W/m² -
1788669072 11.11° C 86% 1026.1 hPa 0 mm - 0 W/m² -
1788668471 11.11° C 85% 1026 hPa 0 mm - 0 W/m² -
1788667872 11.11° C 85% 1025.8 hPa 0 mm - 0 W/m² -
1788667272 11.11° C 85% 1025.9 hPa 0 mm - 0 W/m² -
1788666672 11.11° C 84% 1025.9 hPa 0 mm - 0 W/m² -
1788666073 11.67° C 84% 1025.6 hPa 0 mm - 0 W/m² -
1788665472 11.67° C 84% 1025.6 hPa 0 mm - 0 W/m² -
1788664872 11.67° C 84% 1025.5 hPa 0 mm - 0 W/m² -
1788664272 11.67° C 83% 1025.5 hPa 0 mm - 0 W/m² -
1788663671 12.22° C 83% 1025.5 hPa 0 mm - 0 W/m² -
1788663072 12.22° C 83% 1025.3 hPa 0 mm - 0 W/m² -
1788662471 12.22° C 83% 1025.5 hPa 0 mm - 0 W/m² -
1788661872 12.22° C 83% 1025.5 hPa 0 mm - 0 W/m² -
1788661273 12.22° C 82% 1025.5 hPa 0 mm - 0 W/m² -
1788660672 12.22° C 82% 1025.4 hPa 0 mm - 0 W/m² -
1788660074 12.22° C 82% 1025.3 hPa 0 mm - 0 W/m² -
1788659472 12.22° C 81% 1025.2 hPa 0 mm - 0 W/m² -
1788658872 12.78° C 81% 1025.1 hPa 0 mm - 0 W/m² -

* Rain latest hour (hover to see other rain measurements)
** Current wind speed in m/s (hover to see current wind gust speed)